Time,TemperatureF,DewpointF,PressureIn,WindDirection,WindDirectionDegrees,WindSpeedMPH,WindSpeedGustMPH,Humidity,HourlyPrecipIn,Conditions,Clouds,dailyrainin,SolarRadiationWatts/m^2,SoftwareType,DateUTC
2013-10-21 00:03:00,68.4,50.6,29.41,East,90,2.3,2.3,53,0.00,CLR,OVC,0.00,0.0,WeatherDisplay:10.37,2013-10-20 13:03:00,
2013-10-21 00:08:00,68.2,50.4,29.41,NE,45,2.3,2.3,53,0.00,CLR,OVC,0.00,0.0,WeatherDisplay:10.37,2013-10-20 13:08:00,
2013-10-21 00:13:00,67.8,50.6,29.44,ESE,112,0.0,0.0,54,0.00,CLR,OVC,0.00,0.0,WeatherDisplay:10.37,2013-10-20 13:13:00,
2013-10-21 00:18:00,67.8,50.6,29.44,SE,135,0.0,0.0,54,0.00,CLR,OVC,0.00,0.0,WeatherDisplay:10.37,2013-10-20 13:18:00,
2013-10-21 00:23:00,67.8,50.6,29.44,East,90,1.2,0.0,54,0.00,CLR,OVC,0.00,0.0,WeatherDisplay:10.37,2013-10-20 13:23:00,
2013-10-21 00:28:00,67.6,50.9,29.44,ENE,68,1.2,0.0,55,0.00,CLR,OVC,0.00,0.0,WeatherDisplay:10.37,2013-10-20 13:28:00,
2013-10-21 00:33:00,67.5,50.7,29.44,East,90,0.0,0.0,55,0.00,CLR,OVC,0.00,0.0,WeatherDisplay:10.37,2013-10-20 13:33:00,
2013-10-21 00:38:00,67.3,50.6,29.44,NE,45,0.0,0.9,55,0.00,CLR,OVC,0.00,0.0,WeatherDisplay:10.37,2013-10-20 13:38:00,
2013-10-21 00:43:00,67.1,50.9,29.44,East,90,0.0,0.0,56,0.00,CLR,OVC,0.00,0.0,WeatherDisplay:10.37,2013-10-20 13:43:00,
2013-10-21 00:48:00,66.9,50.7,29.44,SSE,158,0.0,0.0,56,0.00,CLR,OVC,0.00,0.0,WeatherDisplay:10.37,2013-10-20 13:48:00,
2013-10-21 00:53:00,66.6,50.4,29.44,WNW,292,0.0,0.0,56,0.00,CLR,OVC,0.00,0.0,WeatherDisplay:10.37,2013-10-20 13:53:00,
2013-10-21 00:58:00,66.4,50.7,29.44,ESE,112,0.0,0.0,57,0.00,CLR,OVC,0.00,0.0,WeatherDisplay:10.37,2013-10-20 13:58:00,
2013-10-21 01:03:00,66.2,50.5,29.44,NE,45,0.0,0.0,57,0.00,CLR,OVC,0.00,0.0,WeatherDisplay:10.37,2013-10-20 14:03:00,
2013-10-21 01:08:00,66.0,49.9,29.44,NNW,338,0.0,0.0,56,0.00,CLR,OVC,0.00,0.0,WeatherDisplay:10.37,2013-10-20 14:08:00,
2013-10-21 01:13:00,65.8,50.2,29.44,West,270,0.0,0.0,57,0.00,CLR,OVC,0.00,0.0,WeatherDisplay:10.37,2013-10-20 14:13:00,
2013-10-21 01:18:00,65.7,49.5,29.44,West,270,0.0,0.0,56,0.00,CLR,OVC,0.00,0.0,WeatherDisplay:10.37,2013-10-20 14:18:00,
2013-10-21 01:23:00,65.5,49.8,29.44,West,270,0.0,0.0,57,0.00,CLR,OVC,0.00,0.0,WeatherDisplay:10.37,2013-10-20 14:23:00,
2013-10-21 01:28:00,65.5,49.8,29.44,WNW,292,0.0,0.0,57,0.00,CLR,OVC,0.00,0.0,WeatherDisplay:10.37,2013-10-20 14:28:00,
2013-10-21 01:33:00,65.3,50.1,29.44,West,270,0.0,0.0,58,0.00,CLR,OVC,0.00,0.0,WeatherDisplay:10.37,2013-10-20 14:33:00,
2013-10-21 01:38:00,65.1,50.0,29.44,WSW,248,0.0,0.0,58,0.00,CLR,OVC,0.00,0.0,WeatherDisplay:10.37,2013-10-20 14:38:00,
2013-10-21 01:43:00,65.1,50.0,29.44,SW,225,0.0,0.0,58,0.00,CLR,OVC,0.00,0.0,WeatherDisplay:10.37,2013-10-20 14:43:00,
2013-10-21 01:48:00,64.9,50.3,29.44,SSW,202,0.0,0.0,59,0.00,CLR,OVC,0.00,0.0,WeatherDisplay:10.37,2013-10-20 14:48:00,
2013-10-21 01:53:00,64.8,50.1,29.44,SE,135,0.0,0.0,59,0.00,CLR,OVC,0.00,0.0,WeatherDisplay:10.37,2013-10-20 14:53:00,
2013-10-21 01:58:00,64.6,49.5,29.44,South,180,0.0,0.0,58,0.00,CLR,OVC,0.00,0.0,WeatherDisplay:10.37,2013-10-20 14:58:00,
2013-10-21 02:03:00,64.4,49.8,29.44,SSE,158,0.0,0.0,59,0.00,CLR,OVC,0.00,0.0,WeatherDisplay:10.37,2013-10-20 15:03:00,
2013-10-21 02:08:00,64.4,49.8,29.44,SSE,158,0.0,0.0,59,0.00,CLR,OVC,0.00,0.0,WeatherDisplay:10.37,2013-10-20 15:08:00,
2013-10-21 02:13:00,64.2,49.6,29.44,South,180,0.0,0.0,59,0.00,CLR,OVC,0.00,0.0,WeatherDisplay:10.37,2013-10-20 15:13:00,
2013-10-21 02:18:00,64.2,49.6,29.44,South,180,0.0,0.0,59,0.00,CLR,OVC,0.00,0.0,WeatherDisplay:10.37,2013-10-20 15:18:00,
2013-10-21 02:23:00,64.2,50.0,29.44,West,270,0.0,0.0,60,0.00,CLR,OVC,0.00,0.0,WeatherDisplay:10.37,2013-10-20 15:23:00,
2013-10-21 02:28:00,64.0,50.3,29.47,West,270,0.0,0.0,61,0.00,CLR,OVC,0.00,0.0,WeatherDisplay:10.37,2013-10-20 15:28:00,
2013-10-21 02:33:00,63.9,50.1,29.47,West,270,0.0,0.0,61,0.00,CLR,OVC,0.00,0.0,WeatherDisplay:10.37,2013-10-20 15:33:00,
2013-10-21 02:38:00,63.9,50.1,29.47,SSE,158,0.0,0.0,61,0.00,CLR,OVC,0.00,0.0,WeatherDisplay:10.37,2013-10-20 15:38:00,
2013-10-21 02:43:00,63.7,50.0,29.44,SSE,158,0.0,0.0,61,0.00,CLR,OVC,0.00,0.0,WeatherDisplay:10.37,2013-10-20 15:43:00,
2013-10-21 02:48:00,63.5,49.8,29.44,South,180,0.0,0.0,61,0.00,CLR,OVC,0.00,0.0,WeatherDisplay:10.37,2013-10-20 15:48:00,
2013-10-21 02:53:00,63.5,50.2,29.44,South,180,0.0,0.0,62,0.00,CLR,OVC,0.00,0.0,WeatherDisplay:10.37,2013-10-20 15:53:00,
2013-10-21 02:58:00,63.3,49.6,29.44,South,180,0.0,0.0,61,0.00,CLR,OVC,0.00,0.0,WeatherDisplay:10.37,2013-10-20 15:58:00,
2013-10-21 03:03:00,63.1,49.9,29.44,South,180,0.0,0.0,62,0.00,CLR,OVC,0.00,0.0,WeatherDisplay:10.37,2013-10-20 16:03:00,
2013-10-21 03:08:00,63.1,49.9,29.44,South,180,0.0,0.0,62,0.00,CLR,OVC,0.00,0.0,WeatherDisplay:10.37,2013-10-20 16:08:00,
2013-10-21 03:13:00,63.0,49.7,29.44,WSW,248,0.0,0.0,62,0.00,CLR,OVC,0.00,0.0,WeatherDisplay:10.37,2013-10-20 16:13:00,
2013-10-21 03:18:00,62.8,50.0,29.44,WSW,248,0.0,0.0,63,0.00,CLR,OVC,0.00,0.0,WeatherDisplay:10.37,2013-10-20 16:18:00,
2013-10-21 03:23:00,62.8,50.0,29.44,NW,315,0.0,0.0,63,0.00,CLR,OVC,0.00,0.0,WeatherDisplay:10.37,2013-10-20 16:23:00,
2013-10-21 03:28:00,62.6,49.8,29.44,NW,315,0.0,0.0,63,0.00,CLR,OVC,0.00,0.0,WeatherDisplay:10.37,2013-10-20 16:28:00,
2013-10-21 03:34:00,62.6,49.4,29.44,WSW,248,0.0,0.0,62,0.00,CLR,OVC,0.00,0.0,WeatherDisplay:10.37,2013-10-20 16:34:00,
2013-10-21 03:36:00,62.6,49.8,29.44,WSW,248,0.0,0.0,63,0.00,CLR,OVC,0.00,0.0,WeatherDisplay:10.37,2013-10-20 16:36:00,
2013-10-21 03:41:00,62.4,50.1,29.44,West,270,0.0,0.0,64,0.00,CLR,OVC,0.00,0.0,WeatherDisplay:10.37,2013-10-20 16:41:00,
2013-10-21 03:46:00,62.4,50.1,29.44,West,270,0.0,0.0,64,0.00,CLR,OVC,0.00,0.0,WeatherDisplay:10.37,2013-10-20 16:46:00,
2013-10-21 03:51:00,62.2,49.9,29.44,SSW,202,0.0,0.0,64,0.00,CLR,OVC,0.00,0.0,WeatherDisplay:10.37,2013-10-20 16:51:00,
2013-10-21 03:56:00,62.2,49.9,29.44,SSW,202,0.0,0.0,64,0.00,CLR,OVC,0.00,0.0,WeatherDisplay:10.37,2013-10-20 16:56:00,
2013-10-21 04:01:00,62.1,49.7,29.44,West,270,0.0,0.0,64,0.00,CLR,OVC,0.00,0.0,WeatherDisplay:10.37,2013-10-20 17:01:00,
2013-10-21 04:06:00,62.1,50.2,29.44,West,270,0.0,0.0,65,0.00,CLR,OVC,0.00,0.0,WeatherDisplay:10.37,2013-10-20 17:06:00,
2013-10-21 04:11:00,61.9,50.4,29.44,SSE,158,0.0,0.0,66,0.00,CLR,OVC,0.00,0.0,WeatherDisplay:10.37,2013-10-20 17:11:00,
2013-10-21 04:16:00,61.9,50.4,29.44,SE,135,0.0,0.0,66,0.00,CLR,OVC,0.00,0.0,WeatherDisplay:10.37,2013-10-20 17:16:00,
2013-10-21 04:21:00,61.7,50.6,29.44,SE,135,0.0,0.0,67,0.00,CLR,OVC,0.00,0.0,WeatherDisplay:10.37,2013-10-20 17:21:00,
2013-10-21 04:26:00,61.5,50.1,29.44,WSW,248,0.0,0.0,66,0.00,CLR,OVC,0.00,0.0,WeatherDisplay:10.37,2013-10-20 17:26:00,
2013-10-21 04:31:00,61.5,50.5,29.44,WSW,248,0.0,0.0,67,0.00,CLR,OVC,0.00,0.0,WeatherDisplay:10.37,2013-10-20 17:31:00,
2013-10-21 04:36:00,61.3,50.3,29.44,WSW,248,0.0,0.0,67,0.00,CLR,OVC,0.00,0.0,WeatherDisplay:10.37,2013-10-20 17:36:00,
2013-10-21 04:41:00,61.3,50.3,29.44,WSW,248,0.0,0.0,67,0.00,CLR,OVC,0.00,0.0,WeatherDisplay:10.37,2013-10-20 17:41:00,
2013-10-21 04:46:00,61.2,50.1,29.44,West,270,0.0,0.0,67,0.00,CLR,OVC,0.00,0.0,WeatherDisplay:10.37,2013-10-20 17:46:00,
2013-10-21 04:51:00,61.2,50.5,29.44,West,270,0.0,0.0,68,0.00,CLR,OVC,0.00,0.0,WeatherDisplay:10.37,2013-10-20 17:51:00,
2013-10-21 04:56:00,61.2,50.5,29.44,West,270,0.0,0.0,68,0.00,CLR,OVC,0.00,0.0,WeatherDisplay:10.37,2013-10-20 17:56:00,
2013-10-21 05:01:00,61.0,50.3,29.41,WSW,248,0.0,0.0,68,0.00,CLR,OVC,0.00,0.0,WeatherDisplay:10.37,2013-10-20 18:01:00,
2013-10-21 05:06:00,61.0,50.7,29.41,SSE,158,0.0,0.0,69,0.00,CLR,OVC,0.00,0.0,WeatherDisplay:10.37,2013-10-20 18:06:00,
2013-10-21 05:11:00,61.0,50.7,29.41,SSE,158,0.0,0.0,69,0.00,CLR,OVC,0.00,0.0,WeatherDisplay:10.37,2013-10-20 18:11:00,
2013-10-21 05:16:00,60.8,50.6,29.41,SE,135,0.0,0.0,69,0.00,CLR,OVC,0.00,0.0,WeatherDisplay:10.37,2013-10-20 18:16:00,
2013-10-21 05:21:00,60.6,50.4,29.41,SE,135,0.0,0.0,69,0.00,CLR,OVC,0.00,0.0,WeatherDisplay:10.37,2013-10-20 18:21:00,
2013-10-21 05:26:00,60.6,50.4,29.41,SE,135,0.0,0.0,69,0.00,CLR,OVC,0.00,0.0,WeatherDisplay:10.37,2013-10-20 18:26:00,
2013-10-21 05:31:00,60.4,50.2,29.44,SE,135,0.0,0.0,69,0.00,CLR,OVC,0.00,0.0,WeatherDisplay:10.37,2013-10-20 18:31:00,
2013-10-21 05:36:00,60.4,50.6,29.44,SE,135,0.0,0.0,70,0.00,CLR,OVC,0.00,0.0,WeatherDisplay:10.37,2013-10-20 18:36:00,
2013-10-21 05:41:00,60.3,50.4,29.44,NNW,338,0.0,0.0,70,0.00,CLR,OVC,0.00,0.0,WeatherDisplay:10.37,2013-10-20 18:41:00,
2013-10-21 05:46:00,60.3,50.4,29.44,SE,135,0.0,0.0,70,0.00,CLR,OVC,0.00,0.0,WeatherDisplay:10.37,2013-10-20 18:46:00,
2013-10-21 05:51:00,60.1,50.3,29.44,SE,135,0.0,0.0,70,0.00,CLR,OVC,0.00,0.0,WeatherDisplay:10.37,2013-10-20 18:51:00,
2013-10-21 05:56:00,60.1,50.6,29.44,SE,135,0.0,0.0,71,0.00,CLR,OVC,0.00,0.0,WeatherDisplay:10.37,2013-10-20 18:56:00,
2013-10-21 06:01:00,59.9,50.1,29.44,SW,225,0.0,0.0,70,0.00,CLR,OVC,0.00,0.0,WeatherDisplay:10.37,2013-10-20 19:01:00,
2013-10-21 06:06:00,59.9,50.1,29.44,SW,225,0.0,0.0,70,0.00,CLR,OVC,0.00,0.0,WeatherDisplay:10.37,2013-10-20 19:06:00,
2013-10-21 06:11:00,59.7,50.3,29.44,SW,225,0.0,0.0,71,0.00,CLR,OVC,0.00,0.0,WeatherDisplay:10.37,2013-10-20 19:11:00,
2013-10-21 06:16:00,59.7,50.3,29.44,SE,135,0.0,0.0,71,0.00,CLR,OVC,0.00,0.0,WeatherDisplay:10.37,2013-10-20 19:16:00,
2013-10-21 06:21:00,59.7,50.3,29.44,SE,135,0.0,0.0,71,0.00,CLR,OVC,0.00,0.0,WeatherDisplay:10.37,2013-10-20 19:21:00,
2013-10-21 06:26:00,59.7,50.3,29.44,SE,135,0.0,0.0,71,0.00,CLR,OVC,0.00,0.0,WeatherDisplay:10.37,2013-10-20 19:26:00,
2013-10-21 06:31:00,59.5,50.1,29.47,SE,135,0.0,0.0,71,0.00,CLR,OVC,0.00,0.0,WeatherDisplay:10.37,2013-10-20 19:31:00,
2013-10-21 06:36:00,59.5,50.1,29.47,WNW,292,0.0,0.0,71,0.00,CLR,OVC,0.00,0.0,WeatherDisplay:10.37,2013-10-20 19:36:00,
2013-10-21 06:41:00,59.5,50.1,29.47,WNW,292,0.0,0.0,71,0.00,CLR,OVC,0.00,0.0,WeatherDisplay:10.37,2013-10-20 19:41:00,
2013-10-21 06:46:00,59.7,50.7,29.47,ESE,112,0.0,0.0,72,0.00,CLR,OVC,0.00,0.0,WeatherDisplay:10.37,2013-10-20 19:46:00,
2013-10-21 06:51:00,59.7,50.7,29.47,ESE,112,0.0,0.0,72,0.00,CLR,OVC,0.00,0.0,WeatherDisplay:10.37,2013-10-20 19:51:00,
2013-10-21 06:56:00,59.7,50.7,29.47,ESE,112,0.0,0.0,72,0.00,CLR,OVC,0.00,0.0,WeatherDisplay:10.37,2013-10-20 19:56:00,
2013-10-21 07:01:00,59.9,50.8,29.47,ESE,112,0.0,0.0,72,0.00,CLR,OVC,0.00,0.0,WeatherDisplay:10.37,2013-10-20 20:01:00,
2013-10-21 07:06:00,60.1,51.0,29.47,ESE,112,0.0,0.0,72,0.00,CLR,OVC,0.00,0.0,WeatherDisplay:10.37,2013-10-20 20:06:00,
2013-10-21 07:11:00,60.1,51.4,29.47,West,270,0.0,0.0,73,0.00,CLR,OVC,0.00,0.0,WeatherDisplay:10.37,2013-10-20 20:11:00,
2013-10-21 07:16:00,60.4,51.7,29.47,NW,315,0.0,0.0,73,0.00,CLR,OVC,0.00,0.0,WeatherDisplay:10.37,2013-10-20 20:16:00,
2013-10-21 07:21:00,60.6,51.9,29.47,NW,315,0.0,0.0,73,0.00,CLR,OVC,0.00,0.0,WeatherDisplay:10.37,2013-10-20 20:21:00,
2013-10-21 07:26:00,60.6,51.9,29.47,NW,315,0.0,0.0,73,0.00,CLR,OVC,0.00,0.0,WeatherDisplay:10.37,2013-10-20 20:26:00,
2013-10-21 07:31:00,61.0,51.9,29.47,North,0,0.0,0.0,72,0.00,CLR,OVC,0.00,0.0,WeatherDisplay:10.37,2013-10-20 20:31:00,
2013-10-21 07:36:00,61.0,51.9,29.47,North,0,0.0,0.0,72,0.00,CLR,OVC,0.00,0.0,WeatherDisplay:10.37,2013-10-20 20:36:00,
2013-10-21 07:41:00,61.2,52.1,29.47,North,0,0.0,0.0,72,0.00,CLR,OVC,0.00,0.0,WeatherDisplay:10.37,2013-10-20 20:41:00,
2013-10-21 07:46:00,61.5,52.4,29.50,North,0,0.0,0.0,72,0.00,CLR,OVC,0.00,0.0,WeatherDisplay:10.37,2013-10-20 20:46:00,
2013-10-21 07:51:00,61.7,52.6,29.50,North,0,0.0,0.0,72,0.00,CLR,OVC,0.00,0.0,WeatherDisplay:10.37,2013-10-20 20:51:00,
2013-10-21 07:56:00,61.9,52.8,29.50,North,0,0.0,0.0,72,0.00,CLR,OVC,0.00,0.0,WeatherDisplay:10.37,2013-10-20 20:56:00,
2013-10-21 08:01:00,62.2,53.1,29.50,NW,315,0.0,0.0,72,0.00,CLR,OVC,0.00,0.0,WeatherDisplay:10.37,2013-10-20 21:01:00,
2013-10-21 08:06:00,62.6,53.4,29.50,NW,315,0.0,0.0,72,0.00,CLR,OVC,0.00,0.0,WeatherDisplay:10.37,2013-10-20 21:06:00,
2013-10-21 08:11:00,63.0,53.8,29.50,NW,315,0.0,0.0,72,0.00,CLR,OVC,0.00,0.0,WeatherDisplay:10.37,2013-10-20 21:11:00,
2013-10-21 08:16:00,63.9,54.7,29.50,WNW,292,0.0,0.0,72,0.00,CLR,OVC,0.00,0.0,WeatherDisplay:10.37,2013-10-20 21:16:00,
2013-10-21 08:21:00,64.8,55.5,29.50,WNW,292,0.0,0.0,72,0.00,CLR,OVC,0.00,100.0,WeatherDisplay:10.37,2013-10-20 21:21:00,
2013-10-21 08:26:00,65.7,56.4,29.50,WNW,292,1.2,0.0,72,0.00,CLR,OVC,0.00,100.0,WeatherDisplay:10.37,2013-10-20 21:26:00,
2013-10-21 08:31:00,66.6,56.9,29.50,WNW,292,1.4,1.4,71,0.00,CLR,OVC,0.00,100.0,WeatherDisplay:10.37,2013-10-20 21:31:00,
2013-10-21 08:36:00,67.8,57.7,29.50,NW,315,1.6,2.0,70,0.00,CLR,OVC,0.00,100.0,WeatherDisplay:10.37,2013-10-20 21:36:00,
2013-10-21 08:41:00,69.1,58.5,29.50,NNW,338,2.3,2.3,69,0.00,CLR,OVC,0.00,100.0,WeatherDisplay:10.37,2013-10-20 21:41:00,
2013-10-21 08:46:00,70.3,58.9,29.50,West,270,0.0,0.0,67,0.00,CLR,OVC,0.00,200.0,WeatherDisplay:10.37,2013-10-20 21:46:00,
2013-10-21 08:51:00,71.6,59.2,29.50,NNW,338,0.0,0.0,65,0.00,CLR,OVC,0.00,200.0,WeatherDisplay:10.37,2013-10-20 21:51:00,
2013-10-21 08:56:00,72.9,60.0,29.50,NW,315,2.9,2.9,64,0.00,CLR,OVC,0.00,200.0,WeatherDisplay:10.37,2013-10-20 21:56:00,
2013-10-21 09:01:00,74.5,60.1,29.47,NW,315,3.5,3.5,61,0.00,CLR,OVC,0.00,200.0,WeatherDisplay:10.37,2013-10-20 22:01:00,
2013-10-21 09:06:00,75.7,59.9,29.47,NNW,338,0.0,0.0,58,0.00,CLR,OVC,0.00,200.0,WeatherDisplay:10.37,2013-10-20 22:06:00,
2013-10-21 09:11:00,77.0,60.1,29.47,SSW,202,2.6,2.9,56,0.00,CLR,OVC,0.00,300.0,WeatherDisplay:10.37,2013-10-20 22:11:00,
2013-10-21 09:16:00,78.3,60.2,29.47,NNW,338,1.2,0.0,54,0.00,CLR,OVC,0.00,300.0,WeatherDisplay:10.37,2013-10-20 22:16:00,
2013-10-21 09:21:00,79.7,60.5,29.47,NNE,22,0.0,0.0,52,0.00,CLR,OVC,0.00,300.0,WeatherDisplay:10.37,2013-10-20 22:21:00,
2013-10-21 09:26:00,81.1,60.2,29.47,NNE,22,2.0,2.0,49,0.00,CLR,OVC,0.00,300.0,WeatherDisplay:10.37,2013-10-20 22:26:00,
2013-10-21 09:31:00,82.4,59.5,29.47,South,180,2.0,0.0,46,0.00,CLR,OVC,0.00,300.0,WeatherDisplay:10.37,2013-10-20 22:31:00,
2013-10-21 09:36:00,83.8,60.2,29.47,NNE,22,3.5,3.5,45,0.00,CLR,OVC,0.00,300.0,WeatherDisplay:10.37,2013-10-20 22:36:00,
2013-10-21 09:41:00,85.5,59.1,29.47,NNE,22,2.6,2.6,41,0.00,CLR,OVC,0.00,400.0,WeatherDisplay:10.37,2013-10-20 22:41:00,
2013-10-21 09:46:00,86.5,59.3,29.47,WNW,292,3.5,3.5,40,0.00,CLR,OVC,0.00,400.0,WeatherDisplay:10.37,2013-10-20 22:46:00,
2013-10-21 09:51:00,88.0,59.9,29.47,NNE,22,1.2,0.0,39,0.00,CLR,OVC,0.00,400.0,WeatherDisplay:10.37,2013-10-20 22:51:00,
2013-10-21 09:56:00,89.6,59.1,29.47,NW,315,2.3,0.0,36,0.00,CLR,OVC,0.00,400.0,WeatherDisplay:10.37,2013-10-20 22:56:00,
2013-10-21 10:01:00,90.1,57.2,29.47,NNW,338,3.5,3.5,33,0.00,CLR,OVC,0.00,400.0,WeatherDisplay:10.37,2013-10-20 23:01:00,
2013-10-21 10:06:00,90.7,54.1,29.47,NNW,338,3.5,3.5,29,0.00,CLR,OVC,0.00,500.0,WeatherDisplay:10.37,2013-10-20 23:06:00,
2013-10-21 10:11:00,91.4,54.7,29.47,NW,315,5.8,5.8,29,0.00,CLR,OVC,0.00,500.0,WeatherDisplay:10.37,2013-10-20 23:11:00,
2013-10-21 10:16:00,91.6,53.9,29.44,North,0,2.6,2.6,28,0.00,CLR,OVC,0.00,500.0,WeatherDisplay:10.37,2013-10-20 23:16:00,
2013-10-21 10:21:00,92.3,53.5,29.44,NW,315,4.6,4.6,27,0.00,CLR,OVC,0.00,500.0,WeatherDisplay:10.37,2013-10-20 23:21:00,
2013-10-21 10:26:00,92.1,53.3,29.44,NNE,22,5.8,5.8,27,0.00,CLR,OVC,0.00,600.0,WeatherDisplay:10.37,2013-10-20 23:26:00,
2013-10-21 10:31:00,92.8,53.9,29.44,NNE,22,4.7,4.7,27,0.00,CLR,OVC,0.00,600.0,WeatherDisplay:10.37,2013-10-20 23:31:00,
2013-10-21 10:36:00,92.7,51.7,29.44,NNE,22,5.8,5.8,25,0.00,CLR,OVC,0.00,600.0,WeatherDisplay:10.37,2013-10-20 23:36:00,
2013-10-21 10:42:00,93.4,52.3,29.44,East,90,4.7,4.7,25,0.00,CLR,OVC,0.00,600.0,WeatherDisplay:10.37,2013-10-20 23:42:00,
2013-10-21 10:47:00,94.1,51.8,29.44,NNW,338,5.8,5.8,24,0.00,CLR,OVC,0.00,600.0,WeatherDisplay:10.37,2013-10-20 23:47:00,
2013-10-21 10:52:00,93.4,50.0,29.44,NNW,338,3.5,3.5,23,0.00,CLR,OVC,0.00,600.0,WeatherDisplay:10.37,2013-10-20 23:52:00,
2013-10-21 10:57:00,93.6,49.0,29.44,NW,315,4.6,4.6,22,0.00,CLR,OVC,0.00,700.0,WeatherDisplay:10.37,2013-10-20 23:57:00,
2013-10-21 11:02:00,94.3,50.8,29.41,NNE,22,3.3,3.3,23,0.00,CLR,OVC,0.00,700.0,WeatherDisplay:10.37,2013-10-21 00:02:00,
2013-10-21 11:07:00,94.1,48.2,29.41,North,0,5.8,5.8,21,0.00,CLR,OVC,0.00,700.0,WeatherDisplay:10.37,2013-10-21 00:07:00,
2013-10-21 11:12:00,93.6,47.8,29.41,NNW,338,3.5,4.0,21,0.00,CLR,OVC,0.00,600.0,WeatherDisplay:10.37,2013-10-21 00:12:00,
2013-10-21 11:17:00,93.9,48.1,29.41,NNW,338,12.7,12.7,21,0.00,CLR,OVC,0.00,600.0,WeatherDisplay:10.37,2013-10-21 00:17:00,
2013-10-21 11:22:00,94.5,48.5,29.41,NNE,22,5.8,5.8,21,0.00,CLR,OVC,0.00,600.0,WeatherDisplay:10.37,2013-10-21 00:22:00,
2013-10-21 11:27:00,94.8,48.8,29.41,NNW,338,5.8,5.8,21,0.00,CLR,OVC,0.00,700.0,WeatherDisplay:10.37,2013-10-21 00:27:00,
2013-10-21 11:32:00,94.8,47.5,29.38,NNW,338,6.9,6.9,20,0.00,CLR,OVC,0.00,700.0,WeatherDisplay:10.37,2013-10-21 00:32:00,
2013-10-21 11:37:00,94.6,47.3,29.38,NNW,338,5.8,5.8,20,0.00,CLR,OVC,0.00,600.0,WeatherDisplay:10.37,2013-10-21 00:37:00,
2013-10-21 11:42:00,95.0,47.6,29.38,NE,45,5.8,5.8,20,0.00,CLR,OVC,0.00,600.0,WeatherDisplay:10.37,2013-10-21 00:42:00,
2013-10-21 11:47:00,95.2,46.4,29.38,NW,315,2.4,2.4,19,0.00,CLR,OVC,0.00,600.0,WeatherDisplay:10.37,2013-10-21 00:47:00,
2013-10-21 11:52:00,95.7,46.9,29.38,West,270,10.5,10.5,19,0.00,CLR,OVC,0.00,600.0,WeatherDisplay:10.37,2013-10-21 00:52:00,
2013-10-21 11:57:00,95.9,47.0,29.38,NNW,338,4.6,4.6,19,0.00,CLR,OVC,0.00,600.0,WeatherDisplay:10.37,2013-10-21 00:57:00,
2013-10-21 12:02:00,95.5,46.7,29.38,WNW,292,6.9,6.9,19,0.00,CLR,OVC,0.00,600.0,WeatherDisplay:10.37,2013-10-21 01:02:00,
2013-10-21 12:07:00,95.5,45.3,29.38,North,0,6.9,6.9,18,0.00,CLR,OVC,0.00,600.0,WeatherDisplay:10.37,2013-10-21 01:07:00,
2013-10-21 12:12:00,96.3,47.3,29.38,West,270,11.5,11.5,19,0.00,CLR,OVC,0.00,600.0,WeatherDisplay:10.37,2013-10-21 01:12:00,
2013-10-21 12:17:00,96.4,46.0,29.38,NW,315,6.0,6.0,18,0.00,CLR,OVC,0.00,600.0,WeatherDisplay:10.37,2013-10-21 01:17:00,
2013-10-21 12:22:00,97.0,46.5,29.38,NNW,338,5.8,5.8,18,0.00,CLR,OVC,0.00,700.0,WeatherDisplay:10.37,2013-10-21 01:22:00,
2013-10-21 12:27:00,96.8,46.3,29.38,NNW,338,12.7,12.7,18,0.00,CLR,OVC,0.00,700.0,WeatherDisplay:10.37,2013-10-21 01:27:00,
2013-10-21 12:32:00,96.1,44.2,29.35,NNW,338,5.8,5.8,17,0.00,CLR,OVC,0.00,700.0,WeatherDisplay:10.37,2013-10-21 01:32:00,
2013-10-21 12:37:00,96.3,45.9,29.35,NNW,338,4.6,4.6,18,0.00,CLR,OVC,0.00,500.0,WeatherDisplay:10.37,2013-10-21 01:37:00,
2013-10-21 12:42:00,96.6,46.2,29.35,NNW,338,4.6,4.6,18,0.00,CLR,OVC,0.00,500.0,WeatherDisplay:10.37,2013-10-21 01:42:00,
2013-10-21 12:47:00,96.8,44.8,29.35,NNE,22,4.6,4.6,17,0.00,CLR,OVC,0.00,600.0,WeatherDisplay:10.37,2013-10-21 01:47:00,
2013-10-21 12:52:00,96.8,44.8,29.35,NE,45,5.8,5.8,17,0.00,CLR,OVC,0.00,600.0,WeatherDisplay:10.37,2013-10-21 01:52:00,
2013-10-21 12:57:00,96.6,44.7,29.35,West,270,10.9,10.9,17,0.00,CLR,OVC,0.00,500.0,WeatherDisplay:10.37,2013-10-21 01:57:00,
2013-10-21 13:02:00,97.3,45.2,29.32,WNW,292,5.6,5.6,17,0.00,CLR,OVC,0.00,500.0,WeatherDisplay:10.37,2013-10-21 02:02:00,
2013-10-21 13:07:00,97.3,45.2,29.32,NNE,22,5.8,5.8,17,0.00,CLR,OVC,0.00,500.0,WeatherDisplay:10.37,2013-10-21 02:07:00,
2013-10-21 13:12:00,96.4,44.5,29.32,NE,45,5.8,5.8,17,0.00,CLR,OVC,0.00,500.0,WeatherDisplay:10.37,2013-10-21 02:12:00,
2013-10-21 13:17:00,97.0,44.9,29.32,NNW,338,5.8,5.8,17,0.00,CLR,OVC,0.00,500.0,WeatherDisplay:10.37,2013-10-21 02:17:00,
2013-10-21 13:22:00,96.8,44.8,29.32,NW,315,3.5,3.5,17,0.00,CLR,OVC,0.00,500.0,WeatherDisplay:10.37,2013-10-21 02:22:00,
2013-10-21 13:27:00,97.3,45.2,29.32,WNW,292,6.9,6.9,17,0.00,CLR,OVC,0.00,500.0,WeatherDisplay:10.37,2013-10-21 02:27:00,
2013-10-21 13:32:00,97.5,45.4,29.32,WNW,292,6.9,6.9,17,0.00,CLR,OVC,0.00,500.0,WeatherDisplay:10.37,2013-10-21 02:32:00,
2013-10-21 13:37:00,97.3,45.2,29.32,WNW,292,4.6,4.6,17,0.00,CLR,OVC,0.00,500.0,WeatherDisplay:10.37,2013-10-21 02:37:00,
2013-10-21 13:42:00,97.7,45.5,29.32,NW,315,2.3,2.3,17,0.00,CLR,OVC,0.00,500.0,WeatherDisplay:10.37,2013-10-21 02:42:00,
2013-10-21 13:47:00,97.7,45.5,29.29,NNE,22,2.3,2.3,17,0.00,CLR,OVC,0.00,500.0,WeatherDisplay:10.37,2013-10-21 02:47:00,
2013-10-21 13:52:00,97.9,45.7,29.29,West,270,6.0,6.0,17,0.00,CLR,OVC,0.00,500.0,WeatherDisplay:10.37,2013-10-21 02:52:00,
2013-10-21 13:57:00,97.7,45.5,29.29,NNE,22,3.5,3.5,17,0.00,CLR,OVC,0.00,500.0,WeatherDisplay:10.37,2013-10-21 02:57:00,
2013-10-21 14:02:00,97.9,44.1,29.29,NE,45,4.6,5.4,16,0.00,CLR,OVC,0.00,500.0,WeatherDisplay:10.37,2013-10-21 03:02:00,
2013-10-21 14:07:00,97.3,45.2,29.29,NNW,338,2.6,2.6,17,0.00,CLR,OVC,0.00,500.0,WeatherDisplay:10.37,2013-10-21 03:07:00,
2013-10-21 14:12:00,98.1,45.8,29.29,WNW,292,4.9,4.9,17,0.00,CLR,OVC,0.00,500.0,WeatherDisplay:10.37,2013-10-21 03:12:00,
2013-10-21 14:17:00,98.6,44.6,29.26,WNW,292,4.3,4.3,16,0.00,CLR,OVC,0.00,500.0,WeatherDisplay:10.37,2013-10-21 03:17:00,
2013-10-21 14:22:00,99.0,44.9,29.26,NE,45,3.5,3.5,16,0.00,CLR,OVC,0.00,500.0,WeatherDisplay:10.37,2013-10-21 03:22:00,
2013-10-21 14:27:00,98.8,44.8,29.26,NE,45,5.8,5.8,16,0.00,CLR,OVC,0.00,500.0,WeatherDisplay:10.37,2013-10-21 03:27:00,
2013-10-21 14:32:00,98.6,44.6,29.26,NW,315,4.6,4.6,16,0.00,CLR,OVC,0.00,500.0,WeatherDisplay:10.37,2013-10-21 03:32:00,
2013-10-21 14:37:00,98.4,44.5,29.26,NNW,338,5.8,5.8,16,0.00,CLR,OVC,0.00,500.0,WeatherDisplay:10.37,2013-10-21 03:37:00,
2013-10-21 14:42:00,98.4,44.5,29.26,NE,45,3.5,3.5,16,0.00,CLR,OVC,0.00,400.0,WeatherDisplay:10.37,2013-10-21 03:42:00,
2013-10-21 14:47:00,97.9,44.1,29.26,NNE,22,4.0,4.0,16,0.00,CLR,OVC,0.00,400.0,WeatherDisplay:10.37,2013-10-21 03:47:00,
2013-10-21 14:52:00,97.5,43.8,29.26,NNW,338,2.6,2.6,16,0.00,CLR,OVC,0.00,400.0,WeatherDisplay:10.37,2013-10-21 03:52:00,
2013-10-21 14:57:00,97.7,43.9,29.26,NNW,338,5.8,5.8,16,0.00,CLR,OVC,0.00,0.0,WeatherDisplay:10.37,2013-10-21 03:57:00,
2013-10-21 15:01:00,97.9,44.1,29.26,SE,135,4.6,4.6,16,0.00,CLR,OVC,0.00,0.0,WeatherDisplay:10.37,2013-10-21 04:01:00,
2013-10-21 15:06:00,98.4,44.5,29.26,North,0,3.5,3.5,16,0.00,CLR,OVC,0.00,0.0,WeatherDisplay:10.37,2013-10-21 04:06:00,
2013-10-21 15:11:00,98.4,44.5,29.26,NE,45,4.6,4.6,16,0.00,CLR,OVC,0.00,0.0,WeatherDisplay:10.37,2013-10-21 04:11:00,
2013-10-21 15:16:00,98.1,44.2,29.24,North,0,8.1,8.1,16,0.00,CLR,OVC,0.00,0.0,WeatherDisplay:10.37,2013-10-21 04:16:00,
2013-10-21 15:21:00,97.9,44.1,29.24,NNE,22,3.5,3.5,16,0.00,CLR,OVC,0.00,0.0,WeatherDisplay:10.37,2013-10-21 04:21:00,
2013-10-21 15:26:00,97.7,43.9,29.24,WNW,292,8.1,8.1,16,0.00,CLR,OVC,0.00,0.0,WeatherDisplay:10.37,2013-10-21 04:26:00,
2013-10-21 15:31:00,97.5,43.8,29.20,West,270,5.6,5.6,16,0.00,CLR,OVC,0.00,0.0,WeatherDisplay:10.37,2013-10-21 04:31:00,
2013-10-21 15:36:00,97.5,43.8,29.20,NE,45,3.5,3.5,16,0.00,CLR,OVC,0.00,0.0,WeatherDisplay:10.37,2013-10-21 04:36:00,
2013-10-21 15:41:00,97.3,43.6,29.20,NW,315,3.5,3.5,16,0.00,CLR,OVC,0.00,0.0,WeatherDisplay:10.37,2013-10-21 04:41:00,
2013-10-21 15:46:00,97.2,43.5,29.20,NNE,22,3.5,3.5,16,0.00,CLR,OVC,0.00,0.0,WeatherDisplay:10.37,2013-10-21 04:46:00,
2013-10-21 15:51:00,97.3,43.6,29.20,NW,315,6.9,6.9,16,0.00,CLR,OVC,0.00,0.0,WeatherDisplay:10.37,2013-10-21 04:51:00,
2013-10-21 15:56:00,96.8,43.2,29.20,NNW,338,3.5,3.5,16,0.00,CLR,OVC,0.00,0.0,WeatherDisplay:10.37,2013-10-21 04:56:00,
2013-10-21 16:01:00,97.0,43.4,29.20,NNW,338,2.4,2.4,16,0.00,CLR,OVC,0.00,0.0,WeatherDisplay:10.37,2013-10-21 05:01:00,
2013-10-21 16:06:00,97.0,43.4,29.20,NE,45,2.4,2.4,16,0.00,CLR,OVC,0.00,0.0,WeatherDisplay:10.37,2013-10-21 05:06:00,
2013-10-21 16:11:00,96.6,43.1,29.20,NE,45,3.5,3.5,16,0.00,CLR,OVC,0.00,0.0,WeatherDisplay:10.37,2013-10-21 05:11:00,
2013-10-21 16:16:00,96.3,42.8,29.18,NNE,22,2.4,2.4,16,0.00,CLR,OVC,0.00,0.0,WeatherDisplay:10.37,2013-10-21 05:16:00,
2013-10-21 16:21:00,95.9,42.5,29.18,NNW,338,2.4,2.4,16,0.00,CLR,OVC,0.00,0.0,WeatherDisplay:10.37,2013-10-21 05:21:00,
2013-10-21 16:26:00,96.1,42.6,29.18,North,0,5.8,5.8,16,0.00,CLR,OVC,0.00,0.0,WeatherDisplay:10.37,2013-10-21 05:26:00,
2013-10-21 16:31:00,95.9,42.5,29.20,West,270,5.8,5.8,16,0.00,CLR,OVC,0.00,0.0,WeatherDisplay:10.37,2013-10-21 05:31:00,
2013-10-21 16:36:00,95.5,42.2,29.20,NE,45,6.9,6.9,16,0.00,CLR,OVC,0.00,0.0,WeatherDisplay:10.37,2013-10-21 05:36:00,
2013-10-21 16:41:00,95.4,42.1,29.20,NE,45,3.6,3.6,16,0.00,CLR,OVC,0.00,0.0,WeatherDisplay:10.37,2013-10-21 05:41:00,
2013-10-21 16:46:00,95.0,41.8,29.24,North,0,3.8,3.8,16,0.00,CLR,OVC,0.00,0.0,WeatherDisplay:10.37,2013-10-21 05:46:00,
2013-10-21 16:52:00,94.5,42.9,29.24,NE,45,1.2,0.0,17,0.00,CLR,OVC,0.00,0.0,WeatherDisplay:10.37,2013-10-21 05:52:00,
2013-10-21 16:57:00,94.1,42.6,29.24,NE,45,3.8,3.8,17,0.00,CLR,OVC,0.00,0.0,WeatherDisplay:10.37,2013-10-21 05:57:00,
2013-10-21 17:02:00,93.9,42.5,29.20,North,0,3.5,3.5,17,0.00,CLR,OVC,0.00,0.0,WeatherDisplay:10.37,2013-10-21 06:02:00,
2013-10-21 17:07:00,93.7,42.3,29.20,NE,45,2.3,2.3,17,0.00,CLR,OVC,0.00,0.0,WeatherDisplay:10.37,2013-10-21 06:07:00,
2013-10-21 17:12:00,93.7,42.3,29.20,NNW,338,2.3,2.3,17,0.00,CLR,OVC,0.00,0.0,WeatherDisplay:10.37,2013-10-21 06:12:00,
2013-10-21 17:17:00,93.7,42.3,29.20,NNE,22,2.3,2.3,17,0.00,CLR,OVC,0.00,0.0,WeatherDisplay:10.37,2013-10-21 06:17:00,
2013-10-21 17:22:00,93.6,42.2,29.20,NNE,22,2.6,2.6,17,0.00,CLR,OVC,0.00,0.0,WeatherDisplay:10.37,2013-10-21 06:22:00,
2013-10-21 17:27:00,93.2,41.9,29.20,NNE,22,2.3,2.3,17,0.00,CLR,OVC,0.00,0.0,WeatherDisplay:10.37,2013-10-21 06:27:00,
2013-10-21 17:32:00,93.0,41.8,29.24,North,0,2.3,2.3,17,0.00,CLR,OVC,0.00,0.0,WeatherDisplay:10.37,2013-10-21 06:32:00,
2013-10-21 17:37:00,92.8,41.6,29.24,North,0,0.0,0.0,17,0.00,CLR,OVC,0.00,0.0,WeatherDisplay:10.37,2013-10-21 06:37:00,
2013-10-21 17:42:00,92.5,42.8,29.24,West,270,1.4,1.6,18,0.00,CLR,OVC,0.00,0.0,WeatherDisplay:10.37,2013-10-21 06:42:00,
2013-10-21 17:47:00,92.1,42.5,29.20,ESE,112,0.0,0.0,18,0.00,CLR,OVC,0.00,0.0,WeatherDisplay:10.37,2013-10-21 06:47:00,
2013-10-21 17:52:00,91.8,42.2,29.20,East,90,3.5,3.5,18,0.00,CLR,OVC,0.00,0.0,WeatherDisplay:10.37,2013-10-21 06:52:00,
2013-10-21 17:57:00,91.6,42.1,29.20,NE,45,0.0,0.0,18,0.00,CLR,OVC,0.00,0.0,WeatherDisplay:10.37,2013-10-21 06:57:00,
2013-10-21 18:02:00,91.4,41.9,29.20,WNW,292,2.4,2.4,18,0.00,CLR,OVC,0.00,0.0,WeatherDisplay:10.37,2013-10-21 07:02:00,
2013-10-21 18:07:00,91.2,41.8,29.20,NW,315,1.2,1.2,18,0.00,CLR,OVC,0.00,0.0,WeatherDisplay:10.37,2013-10-21 07:07:00,
2013-10-21 18:12:00,90.9,41.5,29.20,NW,315,3.5,3.5,18,0.00,CLR,OVC,0.00,0.0,WeatherDisplay:10.37,2013-10-21 07:12:00,
2013-10-21 18:17:00,90.7,41.3,29.20,WSW,248,2.3,2.3,18,0.00,CLR,OVC,0.00,0.0,WeatherDisplay:10.37,2013-10-21 07:17:00,
2013-10-21 18:22:00,90.5,41.2,29.20,West,270,2.4,0.0,18,0.00,CLR,OVC,0.00,0.0,WeatherDisplay:10.37,2013-10-21 07:22:00,
2013-10-21 18:27:00,90.1,40.9,29.20,SSE,158,1.4,0.0,18,0.00,CLR,OVC,0.00,0.0,WeatherDisplay:10.37,2013-10-21 07:27:00,
2013-10-21 18:32:00,89.8,40.6,29.20,NE,45,2.3,2.3,18,0.00,CLR,OVC,0.00,0.0,WeatherDisplay:10.37,2013-10-21 07:32:00,
2013-10-21 18:37:00,89.6,40.5,29.20,NE,45,2.3,2.3,18,0.00,CLR,OVC,0.00,0.0,WeatherDisplay:10.37,2013-10-21 07:37:00,
2013-10-21 18:42:00,89.4,41.7,29.20,WSW,248,1.2,0.0,19,0.00,CLR,OVC,0.00,0.0,WeatherDisplay:10.37,2013-10-21 07:42:00,
2013-10-21 18:47:00,89.1,41.4,29.20,NNE,22,2.3,2.3,19,0.00,CLR,OVC,0.00,0.0,WeatherDisplay:10.37,2013-10-21 07:47:00,
2013-10-21 18:52:00,88.7,41.1,29.20,ESE,112,2.3,2.3,19,0.00,CLR,OVC,0.00,0.0,WeatherDisplay:10.37,2013-10-21 07:52:00,
2013-10-21 18:57:00,88.5,41.0,29.20,East,90,0.0,0.0,19,0.00,CLR,OVC,0.00,0.0,WeatherDisplay:10.37,2013-10-21 07:57:00,
2013-10-21 19:02:00,87.8,40.4,29.18,SSE,158,0.0,0.0,19,0.00,CLR,OVC,0.00,0.0,WeatherDisplay:10.37,2013-10-21 08:02:00,
2013-10-21 19:07:00,87.4,40.1,29.18,SSE,158,0.0,0.0,19,0.00,CLR,OVC,0.00,0.0,WeatherDisplay:10.37,2013-10-21 08:07:00,
2013-10-21 19:12:00,86.9,39.7,29.18,South,180,1.4,1.4,19,0.00,CLR,OVC,0.00,0.0,WeatherDisplay:10.37,2013-10-21 08:12:00,
2013-10-21 19:17:00,86.5,40.7,29.20,South,180,2.3,2.3,20,0.00,CLR,OVC,0.00,0.0,WeatherDisplay:10.37,2013-10-21 08:17:00,
2013-10-21 19:22:00,86.2,40.4,29.20,WNW,292,1.2,0.0,20,0.00,CLR,OVC,0.00,0.0,WeatherDisplay:10.37,2013-10-21 08:22:00,
2013-10-21 19:27:00,85.5,39.8,29.20,South,180,2.4,2.4,20,0.00,CLR,OVC,0.00,0.0,WeatherDisplay:10.37,2013-10-21 08:27:00,
2013-10-21 19:32:00,84.7,40.5,29.20,South,180,0.0,0.0,21,0.00,CLR,OVC,0.00,0.0,WeatherDisplay:10.37,2013-10-21 08:32:00,
2013-10-21 19:37:00,84.2,40.0,29.20,WSW,248,0.0,0.0,21,0.00,CLR,OVC,0.00,0.0,WeatherDisplay:10.37,2013-10-21 08:37:00,
2013-10-21 19:42:00,83.7,40.8,29.20,NNE,22,0.0,0.0,22,0.00,CLR,OVC,0.00,0.0,WeatherDisplay:10.37,2013-10-21 08:42:00,
2013-10-21 19:47:00,82.9,41.3,29.24,East,90,0.0,0.0,23,0.00,CLR,OVC,0.00,0.0,WeatherDisplay:10.37,2013-10-21 08:47:00,
2013-10-21 19:52:00,82.2,41.8,29.24,NW,315,0.0,0.0,24,0.00,CLR,OVC,0.00,0.0,WeatherDisplay:10.37,2013-10-21 08:52:00,
2013-10-21 19:57:00,81.9,42.6,29.24,NNW,338,0.0,0.0,25,0.00,CLR,OVC,0.00,0.0,WeatherDisplay:10.37,2013-10-21 08:57:00,
2013-10-21 20:02:00,81.3,43.1,29.26,NE,45,0.0,0.0,26,0.00,CLR,OVC,0.00,0.0,WeatherDisplay:10.37,2013-10-21 09:02:00,
2013-10-21 20:07:00,81.0,43.8,29.26,NNE,22,0.0,0.0,27,0.00,CLR,OVC,0.00,0.0,WeatherDisplay:10.37,2013-10-21 09:07:00,
2013-10-21 20:12:00,80.4,44.3,29.26,South,180,3.5,3.5,28,0.00,CLR,OVC,0.00,0.0,WeatherDisplay:10.37,2013-10-21 09:12:00,
2013-10-21 20:17:00,80.1,44.9,29.26,East,90,0.0,0.0,29,0.00,CLR,OVC,0.00,0.0,WeatherDisplay:10.37,2013-10-21 09:17:00,
2013-10-21 20:22:00,79.9,45.7,29.26,ESE,112,0.0,0.0,30,0.00,CLR,OVC,0.00,0.0,WeatherDisplay:10.37,2013-10-21 09:22:00,
2013-10-21 20:27:00,79.7,45.5,29.26,ESE,112,2.3,2.3,30,0.00,CLR,OVC,0.00,0.0,WeatherDisplay:10.37,2013-10-21 09:27:00,
2013-10-21 20:32:00,79.3,45.2,29.26,SSE,158,2.4,2.4,30,0.00,CLR,OVC,0.00,0.0,WeatherDisplay:10.37,2013-10-21 09:32:00,
2013-10-21 20:37:00,79.3,45.2,29.26,East,90,2.3,2.3,30,0.00,CLR,OVC,0.00,0.0,WeatherDisplay:10.37,2013-10-21 09:37:00,
2013-10-21 20:42:00,79.2,45.0,29.26,SE,135,3.5,3.5,30,0.00,CLR,OVC,0.00,0.0,WeatherDisplay:10.37,2013-10-21 09:42:00,
2013-10-21 20:47:00,79.2,45.0,29.26,SE,135,2.3,2.3,30,0.00,CLR,OVC,0.00,0.0,WeatherDisplay:10.37,2013-10-21 09:47:00,
2013-10-21 20:52:00,78.8,45.6,29.26,SE,135,3.5,3.5,31,0.00,CLR,OVC,0.00,0.0,WeatherDisplay:10.37,2013-10-21 09:52:00,
2013-10-21 20:57:00,78.6,45.4,29.26,SE,135,2.9,2.9,31,0.00,CLR,OVC,0.00,0.0,WeatherDisplay:10.37,2013-10-21 09:57:00,
2013-10-21 21:02:00,78.6,46.3,29.29,ESE,112,2.3,2.3,32,0.00,CLR,OVC,0.00,0.0,WeatherDisplay:10.37,2013-10-21 10:02:00,
2013-10-21 21:07:00,78.4,46.1,29.29,SE,135,2.3,2.3,32,0.00,CLR,OVC,0.00,0.0,WeatherDisplay:10.37,2013-10-21 10:07:00,
2013-10-21 21:12:00,78.1,45.8,29.29,SE,135,0.0,0.0,32,0.00,CLR,OVC,0.00,0.0,WeatherDisplay:10.37,2013-10-21 10:12:00,
2013-10-21 21:17:00,77.7,45.5,29.29,North,0,0.0,0.0,32,0.00,CLR,OVC,0.00,0.0,WeatherDisplay:10.37,2013-10-21 10:17:00,
2013-10-21 21:22:00,77.4,46.0,29.29,North,0,0.0,0.0,33,0.00,CLR,OVC,0.00,0.0,WeatherDisplay:10.37,2013-10-21 10:22:00,
2013-10-21 21:27:00,77.0,45.7,29.29,NE,45,0.0,0.0,33,0.00,CLR,OVC,0.00,0.0,WeatherDisplay:10.37,2013-10-21 10:27:00,
2013-10-21 21:32:00,76.6,46.2,29.29,ENE,68,0.0,0.0,34,0.00,CLR,OVC,0.00,0.0,WeatherDisplay:10.37,2013-10-21 10:32:00,
2013-10-21 21:37:00,76.1,46.5,29.29,NE,45,0.0,0.0,35,0.00,CLR,OVC,0.00,0.0,WeatherDisplay:10.37,2013-10-21 10:37:00,
2013-10-21 21:42:00,75.9,46.3,29.29,NE,45,0.0,0.0,35,0.00,CLR,OVC,0.00,0.0,WeatherDisplay:10.37,2013-10-21 10:42:00,
2013-10-21 21:47:00,75.6,46.0,29.32,ENE,68,0.0,0.0,35,0.00,CLR,OVC,0.00,0.0,WeatherDisplay:10.37,2013-10-21 10:47:00,
2013-10-21 21:52:00,75.2,46.4,29.32,NE,45,1.2,0.0,36,0.00,CLR,OVC,0.00,0.0,WeatherDisplay:10.37,2013-10-21 10:52:00,
2013-10-21 21:57:00,74.8,46.8,29.32,ESE,112,2.0,0.0,37,0.00,CLR,OVC,0.00,0.0,WeatherDisplay:10.37,2013-10-21 10:57:00,
2013-10-21 22:02:00,74.7,46.7,29.32,East,90,0.0,0.0,37,0.00,CLR,OVC,0.00,0.0,WeatherDisplay:10.37,2013-10-21 11:02:00,
2013-10-21 22:07:00,74.5,47.2,29.32,NE,45,0.0,0.0,38,0.00,CLR,OVC,0.00,0.0,WeatherDisplay:10.37,2013-10-21 11:07:00,
2013-10-21 22:12:00,74.3,47.0,29.32,East,90,0.0,0.0,38,0.00,CLR,OVC,0.00,0.0,WeatherDisplay:10.37,2013-10-21 11:12:00,
2013-10-21 22:17:00,73.9,47.4,29.29,ENE,68,0.0,0.0,39,0.00,CLR,OVC,0.00,0.0,WeatherDisplay:10.37,2013-10-21 11:17:00,
2013-10-21 22:23:00,73.8,47.9,29.29,NE,45,0.0,0.0,40,0.00,CLR,OVC,0.00,0.0,WeatherDisplay:10.37,2013-10-21 11:23:00,
2013-10-21 22:28:00,73.4,48.3,29.32,ENE,68,0.0,0.0,41,0.00,CLR,OVC,0.00,0.0,WeatherDisplay:10.37,2013-10-21 11:28:00,
2013-10-21 22:33:00,73.2,48.1,29.32,ENE,68,0.0,0.0,41,0.00,CLR,OVC,0.00,0.0,WeatherDisplay:10.37,2013-10-21 11:33:00,
2013-10-21 22:38:00,72.9,47.8,29.32,NE,45,0.0,0.0,41,0.00,CLR,OVC,0.00,0.0,WeatherDisplay:10.37,2013-10-21 11:38:00,
2013-10-21 22:43:00,72.7,48.3,29.32,SE,135,0.0,0.0,42,0.00,CLR,OVC,0.00,0.0,WeatherDisplay:10.37,2013-10-21 11:43:00,
2013-10-21 22:48:00,72.7,48.3,29.32,ENE,68,0.0,0.0,42,0.00,CLR,OVC,0.00,0.0,WeatherDisplay:10.37,2013-10-21 11:48:00,
2013-10-21 22:53:00,72.3,47.9,29.32,NE,45,0.0,0.0,42,0.00,CLR,OVC,0.00,0.0,WeatherDisplay:10.37,2013-10-21 11:53:00,
2013-10-21 22:58:00,72.1,47.8,29.32,ENE,68,0.0,0.0,42,0.00,CLR,OVC,0.00,0.0,WeatherDisplay:10.37,2013-10-21 11:58:00,
2013-10-21 23:03:00,72.1,48.4,29.32,East,90,0.0,0.0,43,0.00,CLR,OVC,0.00,0.0,WeatherDisplay:10.37,2013-10-21 12:03:00,
2013-10-21 23:08:00,72.0,48.2,29.32,ENE,68,0.0,0.0,43,0.00,CLR,OVC,0.00,0.0,WeatherDisplay:10.37,2013-10-21 12:08:00,
2013-10-21 23:13:00,71.8,48.1,29.32,NE,45,0.0,0.0,43,0.00,CLR,OVC,0.00,0.0,WeatherDisplay:10.37,2013-10-21 12:13:00,
2013-10-21 23:18:00,71.6,47.9,29.32,ENE,68,0.0,0.0,43,0.00,CLR,OVC,0.00,0.0,WeatherDisplay:10.37,2013-10-21 12:18:00,
2013-10-21 23:23:00,71.6,47.9,29.32,SE,135,0.0,0.0,43,0.00,CLR,OVC,0.00,0.0,WeatherDisplay:10.37,2013-10-21 12:23:00,
2013-10-21 23:28:00,71.4,48.4,29.29,SE,135,0.0,0.0,44,0.00,CLR,OVC,0.00,0.0,WeatherDisplay:10.37,2013-10-21 12:28:00,
2013-10-21 23:33:00,71.4,48.4,29.29,NNW,338,0.0,0.0,44,0.00,CLR,OVC,0.00,0.0,WeatherDisplay:10.37,2013-10-21 12:33:00,
2013-10-21 23:38:00,71.2,48.2,29.29,SE,135,0.0,0.0,44,0.00,CLR,OVC,0.00,0.0,WeatherDisplay:10.37,2013-10-21 12:38:00,
2013-10-21 23:43:00,71.1,48.0,29.32,SE,135,0.0,0.0,44,0.00,CLR,OVC,0.00,0.0,WeatherDisplay:10.37,2013-10-21 12:43:00,
2013-10-21 23:48:00,71.1,48.0,29.32,East,90,0.0,0.0,44,0.00,CLR,OVC,0.00,0.0,WeatherDisplay:10.37,2013-10-21 12:48:00,
2013-10-21 23:53:00,71.1,48.6,29.32,ENE,68,0.0,0.0,45,0.00,CLR,OVC,0.00,0.0,WeatherDisplay:10.37,2013-10-21 12:53:00,
2013-10-21 23:58:00,70.9,48.5,29.32,NE,45,0.0,0.0,45,0.00,CLR,OVC,0.00,0.0,WeatherDisplay:10.37,2013-10-21 12:58:00,